Regional Weather Roundup
Issued by NWS Green Bay, WI

Home | Current Version | Previous Version | Graphics & Text | Print | Product List | Glossary Off
Versions: 1 2 3 4 5 6 7 8 9 10 11 12 13 14 15 16 17 18 19 20 21 22 23 24 25 26 27 28 29 30 31 32 33 34 35 36 37 38 39 40 41 42 43 44 45 46 47 48 49 50

904
ASUS43 KGRB 230200
RWRGRB

NORTH-CENTRAL AND NORTHEAST WISCONSIN REGIONAL WEATHER ROUNDUP
NATIONAL WEATHER SERVICE GREEN BAY WI
900 PM CDT FRI SEP 22 2017

WIZ005-009-010>012-018-019-230300-
NORTH CENTRAL WISCONSIN

CITY           SKY/WX    TMP DP  RH WIND       PRES   REMARKS
IRONWOOD       CLEAR     76  68  76 S14G22    29.87S
MANITOWISH WTR NOT AVBL
ARBOR VITAE    NOT AVBL
EAGLE RIVER    NOT AVBL
LAND O LAKES   NOT AVBL
RHINELANDER    CLEAR     70  67  90 S5        29.99S
PHILLIPS       NOT AVBL
ANTIGO         NOT AVBL
TOMAHAWK       NOT AVBL
MERRILL        NOT AVBL
$$

WIZ013-073-230300-
NORTHEAST WISCONSIN

CITY           SKY/WX    TMP DP  RH WIND       PRES   REMARKS
IRON MOUNTAIN  CLEAR     67  63  87 SE5       29.97S
MARINETTE      CLEAR     70  66  87 S5        29.99R
$$

WIZ017-030-035>037-045-230300-
CENTRAL WISCONSIN

CITY           SKY/WX    TMP DP  RH WIND       PRES   REMARKS
MEDFORD        NOT AVBL
WAUSAU         CLEAR     75  66  73 S6        29.96S
MOSINEE        PTCLDY    73  66  78 S7        29.99S
MARSHFIELD     CLEAR     75  65  70 S9        29.98R
WISC RAPIDS    CLEAR     78  66  66 S6        29.99S
STEVENS POINT  NOT AVBL
WAUPACA        NOT AVBL
SHAWANO        NOT AVBL
CLINTONVILLE   NOT AVBL
WAUTOMA        CLEAR     71  68  90 CALM      30.00R
$$

WIZ038-039-048-051-230300-
FOX VALLEY

CITY           SKY/WX    TMP DP  RH WIND       PRES   REMARKS
NWS GREEN BAY  CLEAR     73  70  90 S7        29.98S
APPLETON       PTCLDY    75  66  73 S8        29.99S
OSHKOSH        CLEAR     74  69  85 S5        30.00R
FOND DU LAC    CLEAR     74  66  76 SE5       30.01R
$$

WIZ022-050-052-230300-
EAST CENTRAL WISCONSIN

CITY           SKY/WX    TMP DP  RH WIND       PRES   REMARKS
EPHRAIM        NOT AVBL
WASHINGTON ISL NOT AVBL
STURGEON BAY   CLEAR     72  67  84 S8        30.00R
MANITOWOC      CLEAR     71  67  87 S8        30.02S
SHEBOYGAN      CLEAR     67  67 100 NE5       30.02R FOG
$$

LMZ563-521-522-541>543-230300-
LAKESHORE

STATION/POSITION TIME  TEMP    WIND        PRES    VSBY  WAVE
                       AIR SEA DIR/SP/G                  HT/PER
                 (UTC) (F)     (DEG/KT/KT) (MB)    (MI)  (FT/S)
SHEBOYGAN LKSHOR 0100   74     160/ 10/ 11 1015.8S
KEWAUNEE LKSHORE 0130   69     190/ 11/ 14 1015.1F
NORTHPORT PIER   0140   73     160/  7/ 12 1015.2R
N MID LAKE BUOY  0050   69 66  170/ 12/ 14 1015.2R         2/ 4
S GREEN BAY BUOY 0130   73 67  160/ 16/ 19 1014.2F
SISTER BAY LKSHO 0104   71     150/ 10/ 14   N/A
MENOMINEE LKSHOR 0130   71     160/  8/  9 1014.8R
$$




USA.gov is the U.S. government's official web portal to all federal, state and local government web resources and services.